Location: Capelle
(50.3413°N, 1.9974°E)
Time: 09:37:02
(UTC+00:00)

Cosmos 1190 Rocket - Pass Details

Date: 12 January 2026
Orbit: 753 x 775 km, 74.1° (Epoch: 18 February)

Event Time Altitude Azimuth Distance (km) Brightness Sun altitude
Rises 16:58:59 0° 336° (NNW) 3,217 7.2 -7.2°
Reaches altitude 10° 17:01:22 10° 338° (NNW) 2,288 6.4 -7.6°
Maximum altitude 17:06:34 78° 65° (ENE) 777 3.9 -8.3°
Drops below altitude 10° 17:11:44 10° 152° (SSE) 2,279 6.4 -9.1°
Sets 17:14:06 0° 154° (SSE) 3,202 7.2 -9.4°
